Wind_Speed
3 3 3 4 4 4 4 5 5 5 5 5 5 5 5 4 4 3 3 3 4 4 4 4 3 4 4 4 5 5 5 6 5 5 5 5 5 5 5 5 6 7 7
3 3 4 4 4 4 5 6 5 6 6 7 6 6 5 5 5 4 4 3 4 5 5 5 4 4 4 5 6 6 6 6 6 7 7 6 6 6 7 7 8 8 8
4 3 4 4 4 4 5 6 6 6 7 8 7 7 6 6 5 6 5 5 5 5 6 6 6 5 5 6 6 7 7 7 7 7 8 8 8 8 9 8 9 9 10
4 4 4 5 5 5 5 5 6 7 8 8 8 8 8 7 7 7 7 7 6 7 6 7 7 7 7 7 7 8 8 9 9 9 9 9 10 10 10 10 10 11 11
4 4 5 5 6 6 6 6 6 7 8 8 8 9 8 8 8 8 8 9 8 8 8 8 8 8 8 8 8 8 9 9 10 10 11 11 11 11 11 12 12 12 13
2 4 5 6 6 6 6 6 6 7 8 9 9 10 9 9 10 10 10 10 10 10 10 9 10 10 9 10 10 10 10 11 11 11 12 12 12 12 12 13 13 14 14
1 2 4 5 6 6 6 7 7 8 9 10 10 11 11 11 11 11 12 12 12 12 12 12 12 11 11 11 12 12 12 12 12 12 13 13 13 13 14 14 14 15 15
1 2 3 4 5 6 6 8 8 8 9 10 11 12 12 12 12 12 13 13 14 14 14 14 14 13 13 14 14 13 13 14 14 14 15 15 15 15 16 16 16 17 17
2 1 2 3 5 6 7 8 9 10 10 10 11 11 12 13 13 13 13 14 15 15 15 15 15 15 15 15 15 15 15 15 15 16 16 16 17 17 18 18 18 19 19
3 2 3 3 4 5 7 8 9 10 11 11 12 12 12 13 14 14 14 14 15 16 16 16 16 16 16 16 17 17 17 17 17 17 17 18 18 18 19 19 19 19 20
4 4 4 4 5 6 7 8 9 10 11 12 13 13 13 14 14 15 15 15 15 15 17 17 17 18 17 18 18 18 19 18 19 19 19 19 19 20 20 21 21 21 22
5 5 5 5 6 6 7 8 9 10 11 11 12 13 14 15 15 15 15 16 16 16 16 18 18 19 19 19 19 20 20 20 21 21 21 21 22 22 22 23 23 23 24
7 6 6 7 7 8 8 8 9 10 11 12 13 13 14 15 16 17 17 17 17 17 18 19 19 20 20 20 21 21 21 21 22 22 22 22 23 23 24 25 25 25 25
9 8 8 8 8 8 9 9 9 10 10 11 12 13 13 14 15 16 17 17 18 19 19 20 20 20 20 21 23 23 23 23 24 23 24 24 24 25 25 26 26 26 27
10 10 10 10 10 10 10 10 9 10 10 11 12 13 13 14 14 15 16 17 18 20 20 20 20 21 22 23 23 24 25 25 25 24 25 26 27 27 27 27 27 28 29
10 11 11 12 12 12 11 11 11 11 11 12 14 14 15 15 15 16 17 17 18 19 19 20 21 21 22 23 23 24 24 24 25 26 26 27 28 28 29 29 29 29 30
12 12 12 13 13 13 12 12 12 13 14 14 14 15 17 17 17 18 19 19 19 19 19 20 22 21 21 22 23 23 24 24 25 26 26 27 28 29 30 30 29 30 30
14 14 14 14 14 14 14 13 13 14 15 16 16 16 17 18 18 19 20 20 20 20 20 21 22 23 23 23 23 24 24 25 26 26 27 27 28 29 30 31 31 32 31
15 15 15 15 15 15 15 15 15 15 16 17 17 18 18 18 19 20 21 21 22 22 21 21 22 23 24 24 24 24 25 26 27 27 27 28 28 29 30 31 31 31 31
16 16 16 17 17 17 17 17 17 17 17 18 18 18 19 19 20 20 21 22 22 22 23 23 23 23 24 24 24 25 26 26 27 28 27 27 27 28 29 30 30 30 31
17 16 17 18 18 19 19 20 20 19 19 20 20 20 20 20 20 21 21 21 22 22 23 23 24 24 25 25 25 26 26 26 27 27 27 28 28 29 29 30 30 30 31
18 18 18 20 20 21 21 21 21 21 20 21 21 22 22 21 21 21 21 22 22 22 23 24 24 25 25 26 26 26 26 26 27 28 29 29 29 29 30 30 30 31 31
21 21 21 22 22 23 23 22 22 22 22 22 23 23 23 23 23 23 23 23 23 24 24 25 25 25 26 26 27 27 27 27 28 29 30 30 30 31 31 31 31 32 31
24 24 24 25 25 25 25 25 25 25 25 25 24 24 25 25 24 24 24 24 24 24 25 25 26 27 28 28 29 29 29 29 30 30 30 30 31 32 32 32 32 33 33
26 26 27 28 28 28 28 27 27 27 27 27 26 26 25 26 26 26 26 26 25 26 26 26 26 27 28 29 29 30 30 31 31 31 32 32 32 32 32 32 32 33 33
28 28 29 31 30 31 31 29 28 28 28 28 27 27 27 27 27 27 27 27 27 27 27 27 28 28 28 29 30 30 30 31 32 32 32 33 33 33 32 33 34 34 34
Wind_Direction
202 204 207 210 210 207 207 201 196 193 191 187 187 183 185 188 189 195 202 205 210 211 213 218 229 241 244 242 238 242 238 240 244 244 247 249 256 261 264 268 272 274 278
228 217 214 218 216 211 213 212 209 204 203 200 200 199 201 206 210 218 225 228 228 227 226 230 241 251 252 248 245 243 241 244 249 248 250 255 258 263 265 269 272 276 278
226 221 214 224 220 218 218 218 220 214 215 211 212 215 216 219 224 229 233 239 241 239 239 241 250 256 254 256 254 248 246 250 251 252 256 258 260 262 265 269 271 275 276
223 226 223 226 224 223 223 230 235 225 221 221 224 225 227 229 233 237 239 245 246 245 248 253 256 257 257 259 259 255 251 252 254 255 258 261 264 265 266 268 270 274 275
228 229 233 230 232 231 232 234 245 237 230 231 233 233 234 234 235 240 245 247 248 248 254 257 257 260 260 260 260 260 258 257 256 258 261 265 266 267 269 270 271 273 273
235 232 242 240 238 238 244 246 248 243 239 242 244 246 247 242 241 244 249 251 252 254 258 257 259 262 262 262 260 261 260 260 260 262 263 267 268 268 270 271 271 273 274
255 248 250 247 243 243 247 253 254 250 249 247 248 251 253 252 247 247 251 254 255 257 258 259 262 262 264 264 263 262 261 260 261 264 266 269 271 269 270 271 274 274 274
312 262 257 253 250 253 256 257 256 255 254 254 251 253 255 256 253 252 253 255 256 258 259 261 262 265 267 266 267 263 261 260 261 265 267 269 270 270 270 272 273 273 275
0 321 281 269 264 262 262 263 259 256 259 256 254 258 260 258 260 257 259 261 259 259 259 262 262 263 266 268 266 263 263 264 265 267 268 269 270 269 270 271 272 273 275
11 355 325 306 290 275 268 265 260 258 259 258 257 259 263 262 261 262 262 264 263 262 260 260 261 263 266 266 266 264 265 265 268 270 271 270 270 271 272 272 273 275 276
22 14 352 328 312 298 283 274 267 263 263 263 263 263 263 264 263 262 264 265 265 265 261 260 263 264 264 265 267 266 265 266 268 269 270 271 272 272 273 272 273 275 276
6 2 357 342 329 315 302 289 280 272 269 270 269 266 264 264 264 263 263 264 266 267 264 262 263 263 263 263 266 268 268 268 269 269 269 270 271 271 272 273 274 275 277
357 351 351 341 330 321 312 301 290 282 276 273 271 272 269 267 267 266 263 264 266 267 267 266 264 263 264 265 265 267 269 269 270 269 269 271 272 274 275 274 274 276 277
1 351 343 338 331 325 315 308 297 289 281 275 274 277 276 273 272 270 266 265 266 267 268 270 268 266 267 268 266 266 267 267 271 271 270 272 274 275 276 276 275 276 276
355 350 344 338 332 325 319 311 305 297 289 282 278 278 277 275 274 274 271 269 268 268 269 271 272 269 267 268 269 268 267 269 272 272 272 272 274 275 277 277 277 276 276
352 346 342 336 334 325 317 311 306 306 298 289 281 276 276 275 277 277 275 271 270 270 270 272 272 272 271 269 270 272 270 271 272 272 273 274 275 276 277 278 278 277 276
341 340 337 334 332 327 320 314 310 305 303 301 294 285 279 277 280 281 280 275 272 272 272 273 273 274 274 272 274 273 273 273 275 275 274 276 276 275 276 277 278 278 278
337 335 333 331 329 327 322 316 312 308 305 303 300 296 292 284 282 282 283 280 275 273 272 272 273 274 274 274 273 274 274 276 277 277 276 276 276 276 277 276 276 277 277
336 334 334 333 331 329 325 321 316 310 308 306 303 299 296 294 290 285 283 281 279 276 274 274 275 275 275 277 275 275 277 278 279 278 278 277 278 278 279 276 277 276 277
330 329 328 329 327 327 326 322 319 314 309 306 304 301 299 295 292 288 286 284 281 281 279 276 276 278 278 280 280 279 279 280 280 280 280 279 279 278 279 279 279 278 277
324 326 326 326 325 324 322 320 316 312 308 305 303 301 299 297 293 289 288 287 286 284 282 279 278 277 279 281 281 281 281 280 280 281 281 280 279 280 281 281 280 278 278
317 319 322 325 323 321 319 317 314 310 308 306 303 301 298 299 297 294 291 290 289 287 286 284 281 279 280 282 282 282 282 281 281 282 282 282 281 281 281 281 281 281 281
319 318 318 319 321 320 316 314 313 310 307 305 303 301 298 297 297 296 294 292 289 287 287 287 285 281 281 282 282 282 281 280 282 282 282 282 282 282 281 280 280 281 282
312 313 314 315 315 315 314 312 310 309 306 303 302 301 299 297 295 295 295 294 291 289 288 288 288 286 283 282 283 283 283 283 282 282 281 282 282 282 282 281 281 281 281
304 307 308 310 311 312 310 309 308 306 306 304 303 302 300 297 295 295 295 295 294 292 290 289 290 289 287 284 284 284 284 284 284 284 283 283 282 282 282 281 281 281 281
301 303 305 308 308 308 308 305 306 305 305 304 303 301 299 298 296 293 292 293 294 293 292 292 292 291 289 287 286 286 286 287 287 286 285 284 283 282 282 282 281 281 281
Height
5901 5901 5902 5902 5902 5902 5903 5903 5903 5904 5904 5905 5905 5906 5906 5906 5906 5907 5907 5907 5907 5907 5907 5907 5907 5906 5906 5906 5906 5905 5905 5905 5905 5905 5905 5905 5904 5904 5903 5903 5903 5902 5902
5901 5901 5901 5902 5902 5902 5902 5903 5903 5903 5904 5904 5905 5905 5906 5906 5906 5906 5906 5906 5906 5906 5906 5906 5906 5905 5905 5905 5904 5904 5904 5904 5904 5904 5904 5903 5903 5903 5902 5902 5901 5901 5900
5900 5900 5901 5901 5901 5901 5901 5902 5902 5903 5903 5904 5904 5905 5905 5905 5905 5905 5905 5905 5905 5905 5905 5905 5905 5904 5904 5903 5903 5903 5903 5903 5903 5902 5902 5902 5901 5901 5900 5900 5899 5899 5898
5899 5900 5900 5900 5900 5901 5901 5901 5901 5902 5902 5903 5903 5903 5903 5904 5904 5904 5904 5904 5904 5904 5904 5904 5903 5903 5902 5902 5902 5901 5901 5901 5901 5901 5900 5900 5900 5899 5898 5898 5897 5896 5896
5898 5898 5899 5899 5899 5900 5900 5900 5900 5900 5901 5901 5901 5902 5902 5902 5902 5902 5902 5902 5902 5902 5902 5902 5901 5901 5901 5900 5900 5900 5899 5899 5899 5899 5898 5898 5897 5897 5896 5896 5895 5894 5893
5897 5897 5897 5897 5898 5898 5899 5899 5899 5899 5899 5900 5900 5900 5900 5900 5900 5900 5900 5900 5900 5900 5900 5899 5899 5899 5899 5898 5898 5897 5897 5897 5897 5896 5896 5895 5895 5894 5894 5893 5892 5891 5890
5896 5896 5896 5896 5896 5897 5897 5897 5897 5897 5897 5898 5898 5898 5898 5898 5898 5898 5897 5898 5898 5897 5897 5897 5897 5897 5896 5896 5895 5895 5894 5894 5894 5894 5893 5893 5892 5891 5891 5890 5889 5888 5887
5895 5895 5895 5895 5895 5895 5895 5895 5895 5895 5895 5895 5896 5895 5896 5896 5895 5895 5895 5895 5895 5894 5894 5894 5894 5893 5893 5893 5892 5891 5891 5891 5891 5890 5890 5889 5889 5888 5887 5887 5886 5885 5884
5894 5894 5894 5893 5893 5893 5893 5893 5893 5893 5893 5893 5893 5893 5893 5893 5893 5893 5892 5892 5892 5891 5891 5891 5890 5890 5889 5889 5888 5888 5888 5887 5887 5886 5886 5885 5885 5884 5883 5882 5882 5881 5880
5893 5893 5893 5892 5892 5892 5891 5891 5891 5891 5891 5890 5890 5890 5890 5890 5890 5889 5889 5889 5888 5888 5888 5887 5887 5886 5886 5885 5885 5884 5884 5883 5883 5882 5882 5881 5880 5880 5879 5878 5877 5876 5875
5893 5893 5892 5891 5891 5890 5889 5889 5889 5888 5888 5888 5887 5887 5887 5887 5886 5886 5886 5885 5885 5884 5884 5883 5883 5882 5882 5881 5880 5880 5879 5879 5878 5878 5877 5877 5876 5875 5874 5873 5872 5872 5871
5893 5892 5891 5890 5889 5888 5887 5886 5886 5885 5885 5885 5884 5884 5883 5883 5883 5882 5882 5881 5881 5880 5880 5879 5879 5878 5877 5876 5876 5875 5874 5874 5873 5873 5872 5871 5870 5869 5869 5868 5867 5866 5865
5893 5891 5890 5889 5888 5886 5885 5884 5883 5882 5882 5881 5881 5880 5880 5879 5879 5878 5878 5877 5877 5876 5875 5874 5873 5873 5872 5871 5871 5870 5870 5869 5868 5867 5866 5866 5865 5864 5863 5862 5861 5860 5859
5892 5890 5889 5888 5886 5884 5883 5882 5880 5879 5878 5878 5877 5876 5876 5875 5874 5873 5873 5872 5872 5871 5870 5869 5868 5868 5867 5866 5865 5864 5864 5863 5862 5861 5860 5860 5859 5858 5857 5856 5855 5854 5853
5891 5890 5888 5886 5885 5883 5881 5879 5878 5877 5875 5874 5873 5872 5872 5871 5870 5869 5868 5867 5867 5866 5865 5864 5863 5862 5861 5860 5859 5858 5858 5857 5856 5855 5854 5853 5852 5851 5850 5849 5848 5847 5846
5890 5889 5887 5885 5883 5881 5879 5877 5876 5874 5872 5871 5869 5868 5867 5866 5865 5864 5863 5862 5861 5860 5859 5858 5857 5856 5855 5854 5853 5852 5851 5851 5850 5849 5848 5847 5845 5844 5843 5842 5841 5839 5838
5889 5887 5885 5883 5881 5878 5876 5874 5873 5871 5869 5867 5865 5864 5863 5861 5860 5859 5858 5857 5855 5855 5854 5853 5851 5850 5849 5848 5847 5846 5845 5844 5843 5842 5841 5839 5838 5837 5836 5835 5833 5832 5830
5887 5885 5882 5880 5878 5875 5873 5871 5869 5868 5866 5864 5861 5860 5858 5856 5855 5854 5853 5851 5850 5849 5848 5847 5845 5844 5843 5842 5841 5840 5839 5838 5837 5835 5834 5832 5831 5830 5828 5827 5825 5824 5822
5885 5882 5880 5877 5875 5873 5870 5868 5866 5864 5862 5859 5857 5855 5853 5851 5850 5849 5847 5845 5844 5843 5842 5841 5839 5838 5837 5835 5834 5833 5832 5831 5830 5828 5827 5825 5823 5822 5820 5818 5817 5815 5814
5882 5880 5877 5875 5872 5870 5867 5864 5862 5860 5857 5855 5853 5850 5848 5846 5844 5843 5841 5839 5838 5836 5835 5834 5833 5832 5830 5829 5828 5826 5825 5823 5822 5821 5819 5817 5816 5814 5812 5811 5809 5807 5806
5878 5876 5874 5871 5869 5866 5863 5860 5858 5855 5853 5850 5848 5846 5843 5841 5839 5837 5835 5834 5832 5830 5828 5827 5826 5825 5823 5822 5820 5819 5817 5816 5814 5813 5811 5810 5808 5806 5804 5802 5801 5799 5797
5874 5872 5870 5867 5864 5862 5859 5856 5853 5850 5847 5845 5843 5840 5838 5835 5833 5831 5830 5828 5826 5824 5822 5820 5819 5817 5816 5814 5813 5811 5809 5808 5807 5806 5804 5802 5800 5798 5796 5794 5793 5791 5789
5870 5868 5865 5863 5860 5857 5854 5850 5847 5845 5842 5839 5837 5834 5832 5829 5827 5825 5823 5821 5819 5817 5816 5814 5812 5810 5809 5807 5805 5804 5802 5800 5799 5797 5795 5793 5791 5790 5788 5786 5784 5783 5781
5865 5863 5860 5858 5855 5851 5848 5845 5842 5839 5836 5833 5830 5828 5825 5823 5821 5818 5816 5814 5812 5810 5808 5806 5805 5803 5801 5799 5797 5795 5793 5792 5790 5788 5786 5784 5782 5781 5779 5777 5775 5773 5771
5859 5857 5855 5851 5848 5845 5842 5839 5835 5832 5829 5827 5824 5821 5818 5816 5814 5811 5809 5807 5805 5803 5800 5798 5796 5794 5792 5790 5788 5787 5785 5783 5781 5779 5777 5775 5773 5771 5769 5767 5765 5763 5762
5853 5850 5848 5845 5841 5838 5835 5831 5828 5826 5823 5820 5817 5814 5811 5808 5806 5803 5801 5799 5797 5795 5793 5791 5789 5786 5784 5782 5779 5778 5776 5774 5772 5770 5767 5765 5763 5761 5760 5758 5755 5753 5752